Time,TemperatureF,DewpointF,PressureIn,WindDirection,WindDirectionDegrees,WindSpeedMPH,WindSpeedGustMPH,Humidity,HourlyPrecipIn,Conditions,Clouds,dailyrainin,SoftwareType,DateUTC
2013-05-27 00:01:00,59.9,0.0,30.24,ENE,64,0.0,0.0,0,0.00,CLR,SCT,0.00,WeatherDisplay:10.37,2013-05-27 04:01:00,
2013-05-27 00:06:00,59.9,0.0,30.25,SSE,167,2.3,2.3,0,0.00,CLR,SCT,0.00,WeatherDisplay:10.37,2013-05-27 04:06:00,
2013-05-27 00:11:00,59.6,0.0,30.25,SSE,160,0.0,0.0,0,0.00,CLR,SCT,0.00,WeatherDisplay:10.37,2013-05-27 04:11:00,
2013-05-27 00:16:00,59.4,0.0,30.24,SSE,160,0.0,0.0,0,0.00,CLR,SCT,0.00,WeatherDisplay:10.37,2013-05-27 04:16:00,
2013-05-27 00:21:00,59.4,0.0,30.24,SSE,160,0.0,0.0,0,0.00,CLR,SCT,0.00,WeatherDisplay:10.37,2013-05-27 04:21:00,
2013-05-27 00:26:00,59.3,0.0,30.24,SSE,160,0.0,0.0,0,0.00,CLR,SCT,0.00,WeatherDisplay:10.37,2013-05-27 04:26:00,
2013-05-27 00:31:00,59.1,0.0,30.24,SSE,160,0.0,0.0,0,0.00,CLR,SCT,0.00,WeatherDisplay:10.37,2013-05-27 04:31:00,
2013-05-27 00:36:00,59.0,0.0,30.25,SSE,160,0.0,0.0,0,0.00,CLR,SCT,0.00,WeatherDisplay:10.37,2013-05-27 04:36:00,
2013-05-27 00:41:00,59.0,0.0,30.25,SSE,160,0.0,0.0,0,0.00,CLR,SCT,0.00,WeatherDisplay:10.37,2013-05-27 04:41:00,
2013-05-27 00:46:00,58.8,0.0,30.25,SSE,160,0.0,0.0,0,0.00,CLR,SCT,0.00,WeatherDisplay:10.37,2013-05-27 04:46:00,
2013-05-27 00:51:00,58.7,0.0,30.25,SSE,160,0.0,0.0,0,0.00,CLR,SCT,0.00,WeatherDisplay:10.37,2013-05-27 04:51:00,
2013-05-27 00:56:00,58.4,0.0,30.25,SSE,160,0.0,0.0,0,0.00,CLR,SCT,0.00,WeatherDisplay:10.37,2013-05-27 04:56:00,
2013-05-27 01:01:00,58.2,0.0,30.25,SSE,160,0.0,0.0,0,0.00,CLR,SCT,0.00,WeatherDisplay:10.37,2013-05-27 05:01:00,
2013-05-27 01:06:00,57.9,0.0,30.25,SSE,160,0.0,0.0,0,0.00,CLR,SCT,0.00,WeatherDisplay:10.37,2013-05-27 05:06:00,
2013-05-27 01:11:00,57.8,0.0,30.25,SSE,160,0.0,0.0,0,0.00,CLR,SCT,0.00,WeatherDisplay:10.37,2013-05-27 05:11:00,
2013-05-27 01:16:00,57.7,0.0,30.25,SSE,160,0.0,0.0,0,0.00,CLR,SCT,0.00,WeatherDisplay:10.37,2013-05-27 05:16:00,
2013-05-27 01:21:00,57.7,0.0,30.25,SSE,160,0.0,0.0,0,0.00,CLR,SCT,0.00,WeatherDisplay:10.37,2013-05-27 05:21:00,
2013-05-27 01:26:00,57.7,0.0,30.26,SSE,160,0.0,0.0,0,0.00,CLR,SCT,0.00,WeatherDisplay:10.37,2013-05-27 05:26:00,
2013-05-27 01:31:00,57.6,0.0,30.26,SSE,160,0.0,0.0,0,0.00,CLR,SCT,0.00,WeatherDisplay:10.37,2013-05-27 05:31:00,
2013-05-27 01:36:00,57.6,0.0,30.25,SSE,160,0.0,0.0,0,0.00,CLR,SCT,0.00,WeatherDisplay:10.37,2013-05-27 05:36:00,
2013-05-27 01:41:00,57.6,0.0,30.25,SSE,160,0.0,0.0,0,0.00,CLR,SCT,0.00,WeatherDisplay:10.37,2013-05-27 05:41:00,
2013-05-27 01:46:00,57.5,0.0,30.25,SSE,160,0.0,0.0,0,0.00,CLR,SCT,0.00,WeatherDisplay:10.37,2013-05-27 05:46:00,
2013-05-27 01:51:00,57.5,0.0,30.25,SSE,160,0.0,0.0,0,0.00,CLR,SCT,0.00,WeatherDisplay:10.37,2013-05-27 05:51:00,
2013-05-27 01:56:00,57.4,0.0,30.25,SSE,160,0.0,0.0,0,0.00,CLR,SCT,0.00,WeatherDisplay:10.37,2013-05-27 05:56:00,
2013-05-27 02:01:00,57.4,0.0,30.25,SSE,160,0.0,0.0,0,0.00,CLR,SCT,0.00,WeatherDisplay:10.37,2013-05-27 06:01:00,
2013-05-27 02:06:00,57.4,0.0,30.25,SSE,160,0.0,0.0,0,0.00,CLR,SCT,0.00,WeatherDisplay:10.37,2013-05-27 06:06:00,
2013-05-27 02:11:00,57.3,0.0,30.25,SSE,160,0.0,0.0,0,0.00,CLR,SCT,0.00,WeatherDisplay:10.37,2013-05-27 06:11:00,
2013-05-27 02:16:00,57.2,0.0,30.25,SSE,160,0.0,0.0,0,0.00,CLR,SCT,0.00,WeatherDisplay:10.37,2013-05-27 06:16:00,
2013-05-27 02:21:00,57.1,0.0,30.25,SSE,160,0.0,0.0,0,0.00,CLR,SCT,0.00,WeatherDisplay:10.37,2013-05-27 06:21:00,
2013-05-27 02:27:00,56.7,0.0,30.25,SSE,160,0.0,0.0,0,0.00,CLR,SCT,0.00,WeatherDisplay:10.37,2013-05-27 06:27:00,
2013-05-27 02:32:00,56.4,0.0,30.25,SSE,160,0.0,0.0,0,0.00,CLR,SCT,0.00,WeatherDisplay:10.37,2013-05-27 06:32:00,
2013-05-27 02:37:00,56.0,0.0,30.25,South,175,2.3,2.3,0,0.00,CLR,SCT,0.00,WeatherDisplay:10.37,2013-05-27 06:37:00,
2013-05-27 02:42:00,55.7,0.0,30.25,SSE,147,0.0,0.0,0,0.00,CLR,SCT,0.00,WeatherDisplay:10.37,2013-05-27 06:42:00,
2013-05-27 02:47:00,55.7,0.0,30.25,SSE,147,0.0,0.0,0,0.00,CLR,SCT,0.00,WeatherDisplay:10.37,2013-05-27 06:47:00,
2013-05-27 02:52:00,55.7,0.0,30.25,SSE,147,0.0,0.0,0,0.00,CLR,SCT,0.00,WeatherDisplay:10.37,2013-05-27 06:52:00,
2013-05-27 02:57:00,55.8,0.0,30.26,SW,216,1.0,1.0,0,0.00,CLR,SCT,0.00,WeatherDisplay:10.37,2013-05-27 06:57:00,
2013-05-27 03:02:00,56.1,0.0,30.25,SSW,209,0.0,0.0,0,0.00,CLR,SCT,0.00,WeatherDisplay:10.37,2013-05-27 07:02:00,
2013-05-27 03:07:00,56.1,0.0,30.25,SSW,209,0.0,0.0,0,0.00,CLR,SCT,0.00,WeatherDisplay:10.37,2013-05-27 07:07:00,
2013-05-27 03:12:00,56.2,0.0,30.25,SSW,209,0.0,0.0,0,0.00,CLR,SCT,0.00,WeatherDisplay:10.37,2013-05-27 07:12:00,
2013-05-27 03:17:00,56.2,0.0,30.25,ENE,66,2.3,2.3,0,0.00,CLR,SCT,0.00,WeatherDisplay:10.37,2013-05-27 07:17:00,
2013-05-27 03:22:00,56.1,0.0,30.25,NNE,28,0.0,0.0,0,0.00,CLR,SCT,0.00,WeatherDisplay:10.37,2013-05-27 07:22:00,
2013-05-27 03:27:00,55.9,0.0,30.25,NNE,28,0.0,0.0,0,0.00,CLR,SCT,0.00,WeatherDisplay:10.37,2013-05-27 07:27:00,
2013-05-27 03:32:00,55.9,0.0,30.25,NNE,28,0.0,0.0,0,0.00,CLR,SCT,0.00,WeatherDisplay:10.37,2013-05-27 07:32:00,
2013-05-27 03:37:00,55.8,0.0,30.25,NNE,28,0.0,0.0,0,0.00,CLR,SCT,0.00,WeatherDisplay:10.37,2013-05-27 07:37:00,
2013-05-27 03:42:00,55.9,0.0,30.25,NNE,28,0.0,0.0,0,0.00,CLR,SCT,0.00,WeatherDisplay:10.37,2013-05-27 07:42:00,
2013-05-27 03:47:00,56.0,0.0,30.25,NNE,28,0.0,0.0,0,0.00,CLR,SCT,0.00,WeatherDisplay:10.37,2013-05-27 07:47:00,
2013-05-27 03:52:00,56.0,0.0,30.25,NNE,28,0.0,0.0,0,0.00,CLR,SCT,0.00,WeatherDisplay:10.37,2013-05-27 07:52:00,
2013-05-27 03:57:00,56.0,0.0,30.25,NNE,28,0.0,0.0,0,0.00,CLR,SCT,0.00,WeatherDisplay:10.37,2013-05-27 07:57:00,
2013-05-27 04:02:00,55.9,0.0,30.25,NNE,28,0.0,0.0,0,0.00,CLR,SCT,0.00,WeatherDisplay:10.37,2013-05-27 08:02:00,
2013-05-27 04:07:00,55.9,0.0,30.25,NNE,28,0.0,0.0,0,0.00,CLR,SCT,0.00,WeatherDisplay:10.37,2013-05-27 08:07:00,
2013-05-27 04:12:00,55.8,0.0,30.25,NNE,28,0.0,0.0,0,0.00,CLR,SCT,0.00,WeatherDisplay:10.37,2013-05-27 08:12:00,
2013-05-27 04:17:00,55.8,0.0,30.25,NNE,28,0.0,0.0,0,0.00,CLR,SCT,0.00,WeatherDisplay:10.37,2013-05-27 08:17:00,
2013-05-27 04:22:00,55.8,0.0,30.25,NNE,28,0.0,0.0,0,0.00,CLR,SCT,0.00,WeatherDisplay:10.37,2013-05-27 08:22:00,
2013-05-27 04:27:00,55.9,0.0,30.25,NNE,28,0.0,0.0,0,0.00,CLR,SCT,0.00,WeatherDisplay:10.37,2013-05-27 08:27:00,
2013-05-27 04:32:00,56.0,0.0,30.25,NNE,28,0.0,0.0,0,0.00,CLR,SCT,0.00,WeatherDisplay:10.37,2013-05-27 08:32:00,
2013-05-27 04:37:00,56.1,0.0,30.25,NNE,28,0.0,0.0,0,0.00,CLR,SCT,0.00,WeatherDisplay:10.37,2013-05-27 08:37:00,
2013-05-27 04:42:00,56.2,0.0,30.25,NNE,28,0.0,0.0,0,0.00,CLR,SCT,0.00,WeatherDisplay:10.37,2013-05-27 08:42:00,
2013-05-27 04:47:00,56.3,0.0,30.25,NNE,28,0.0,0.0,0,0.00,CLR,SCT,0.00,WeatherDisplay:10.37,2013-05-27 08:47:00,
2013-05-27 04:52:00,56.4,0.0,30.25,NNE,28,0.0,0.0,0,0.00,CLR,SCT,0.00,WeatherDisplay:10.37,2013-05-27 08:52:00,
2013-05-27 04:57:00,56.4,0.0,30.26,NNE,28,0.0,0.0,0,0.00,CLR,SCT,0.00,WeatherDisplay:10.37,2013-05-27 08:57:00,
2013-05-27 05:02:00,56.3,0.0,30.26,NNE,28,0.0,0.0,0,0.00,OVC,SCT,0.00,WeatherDisplay:10.37,2013-05-27 09:02:00,
2013-05-27 05:07:00,56.3,0.0,30.26,NNE,28,0.0,0.0,0,0.00,OVC,SCT,0.00,WeatherDisplay:10.37,2013-05-27 09:07:00,
2013-05-27 05:12:00,56.3,0.0,30.26,NNE,28,0.0,0.0,0,0.00,OVC,SCT,0.00,WeatherDisplay:10.37,2013-05-27 09:12:00,
2013-05-27 05:17:00,56.2,0.0,30.26,NNE,28,0.0,0.0,0,0.00,OVC,SCT,0.00,WeatherDisplay:10.37,2013-05-27 09:17:00,
2013-05-27 05:22:00,56.1,0.0,30.26,NNE,28,0.0,0.0,0,0.00,OVC,SCT,0.00,WeatherDisplay:10.37,2013-05-27 09:22:00,
2013-05-27 05:27:00,56.0,0.0,30.26,NNE,28,0.0,0.0,0,0.00,OVC,SCT,0.00,WeatherDisplay:10.37,2013-05-27 09:27:00,
2013-05-27 05:32:00,55.8,0.0,30.27,NNE,28,0.0,0.0,0,0.00,OVC,SCT,0.00,WeatherDisplay:10.37,2013-05-27 09:32:00,
2013-05-27 05:37:00,55.8,0.0,30.27,NNE,28,0.0,0.0,0,0.00,OVC,SCT,0.00,WeatherDisplay:10.37,2013-05-27 09:37:00,
2013-05-27 05:42:00,55.7,0.0,30.27,NNE,28,0.0,0.0,0,0.00,OVC,SCT,0.00,WeatherDisplay:10.37,2013-05-27 09:42:00,
2013-05-27 05:47:00,55.6,0.0,30.27,NNE,28,0.0,0.0,0,0.00,OVC,SCT,0.00,WeatherDisplay:10.37,2013-05-27 09:47:00,
2013-05-27 05:52:00,55.5,0.0,30.27,NNE,28,0.0,0.0,0,0.00,OVC,SCT,0.00,WeatherDisplay:10.37,2013-05-27 09:52:00,
2013-05-27 05:57:00,55.4,0.0,30.28,NNE,28,0.0,0.0,0,0.00,OVC,SCT,0.00,WeatherDisplay:10.37,2013-05-27 09:57:00,
2013-05-27 06:02:00,55.4,0.0,30.28,NNE,28,0.0,0.0,0,0.00,BKN,SCT,0.00,WeatherDisplay:10.37,2013-05-27 10:02:00,
2013-05-27 06:07:00,55.2,0.0,30.28,NNE,28,0.0,0.0,0,0.00,BKN,SCT,0.00,WeatherDisplay:10.37,2013-05-27 10:07:00,
2013-05-27 06:12:00,55.1,0.0,30.28,NNE,28,0.0,0.0,0,0.00,BKN,SCT,0.00,WeatherDisplay:10.37,2013-05-27 10:12:00,
2013-05-27 06:17:00,54.9,0.0,30.28,NNE,28,0.0,0.0,0,0.00,BKN,SCT,0.00,WeatherDisplay:10.37,2013-05-27 10:17:00,
2013-05-27 06:22:00,54.8,0.0,30.28,NNE,28,0.0,0.0,0,0.00,BKN,SCT,0.00,WeatherDisplay:10.37,2013-05-27 10:22:00,
2013-05-27 06:27:00,54.8,0.0,30.27,NNE,28,0.0,0.0,0,0.00,BKN,SCT,0.00,WeatherDisplay:10.37,2013-05-27 10:27:00,
2013-05-27 06:32:00,54.7,0.0,30.28,NNE,28,0.0,0.0,0,0.00,BKN,SCT,0.00,WeatherDisplay:10.37,2013-05-27 10:32:00,
2013-05-27 06:37:00,54.7,0.0,30.28,NNE,28,0.0,0.0,0,0.00,BKN,SCT,0.00,WeatherDisplay:10.37,2013-05-27 10:37:00,
2013-05-27 06:42:00,54.8,0.0,30.28,NNE,28,0.0,0.0,0,0.00,BKN,SCT,0.00,WeatherDisplay:10.37,2013-05-27 10:42:00,
2013-05-27 06:47:00,54.8,0.0,30.29,NNE,28,0.0,0.0,0,0.00,BKN,SCT,0.00,WeatherDisplay:10.37,2013-05-27 10:47:00,
2013-05-27 06:52:00,55.0,0.0,30.29,NNE,28,0.0,0.0,0,0.00,BKN,SCT,0.00,WeatherDisplay:10.37,2013-05-27 10:52:00,
2013-05-27 06:57:00,54.9,0.0,30.29,NNE,28,0.0,0.0,0,0.00,BKN,SCT,0.00,WeatherDisplay:10.37,2013-05-27 10:57:00,
2013-05-27 07:02:00,54.9,0.0,30.29,NNE,28,0.0,0.0,0,0.00,CLR,SCT,0.00,WeatherDisplay:10.37,2013-05-27 11:02:00,
2013-05-27 07:07:00,54.8,0.0,30.29,NNE,28,0.0,0.0,0,0.00,CLR,SCT,0.00,WeatherDisplay:10.37,2013-05-27 11:07:00,
2013-05-27 07:12:00,54.7,0.0,30.29,NNE,28,0.0,0.0,0,0.00,CLR,SCT,0.00,WeatherDisplay:10.37,2013-05-27 11:12:00,
2013-05-27 07:17:00,54.7,0.0,30.29,NNE,28,0.0,0.0,0,0.00,CLR,SCT,0.00,WeatherDisplay:10.37,2013-05-27 11:17:00,
2013-05-27 07:22:00,54.8,0.0,30.29,NNE,28,0.0,0.0,0,0.00,CLR,SCT,0.00,WeatherDisplay:10.37,2013-05-27 11:22:00,
2013-05-27 07:27:00,54.9,0.0,30.29,NNE,28,0.0,0.0,0,0.00,CLR,SCT,0.00,WeatherDisplay:10.37,2013-05-27 11:27:00,
2013-05-27 07:32:00,55.0,0.0,30.30,NNE,28,0.0,0.0,0,0.00,CLR,SCT,0.00,WeatherDisplay:10.37,2013-05-27 11:32:00,
2013-05-27 07:37:00,55.1,0.0,30.30,NNE,14,1.1,1.1,0,0.00,CLR,SCT,0.00,WeatherDisplay:10.37,2013-05-27 11:37:00,
2013-05-27 07:42:00,55.3,0.0,30.30,NNE,14,0.0,0.0,0,0.00,CLR,SCT,0.00,WeatherDisplay:10.37,2013-05-27 11:42:00,
2013-05-27 07:47:00,55.3,0.0,30.30,NNE,14,0.0,0.0,0,0.00,CLR,SCT,0.00,WeatherDisplay:10.37,2013-05-27 11:47:00,
2013-05-27 07:52:00,55.4,0.0,30.29,South,172,1.1,0.0,0,0.00,CLR,SCT,0.00,WeatherDisplay:10.37,2013-05-27 11:52:00,
2013-05-27 07:57:00,55.5,0.0,30.30,South,172,0.0,0.0,0,0.00,CLR,SCT,0.00,WeatherDisplay:10.37,2013-05-27 11:57:00,
2013-05-27 08:02:00,55.6,0.0,30.30,South,172,0.0,0.0,0,0.00,CLR,SCT,0.00,WeatherDisplay:10.37,2013-05-27 12:02:00,
2013-05-27 08:07:00,55.7,0.0,30.30,South,172,0.0,0.0,0,0.00,CLR,SCT,0.00,WeatherDisplay:10.37,2013-05-27 12:07:00,
2013-05-27 08:12:00,56.0,0.0,30.30,South,172,0.0,0.0,0,0.00,CLR,SCT,0.00,WeatherDisplay:10.37,2013-05-27 12:12:00,
2013-05-27 08:17:00,56.2,0.0,30.30,South,172,0.0,0.0,0,0.00,CLR,SCT,0.00,WeatherDisplay:10.37,2013-05-27 12:17:00,
2013-05-27 08:22:00,56.5,0.0,30.30,South,172,0.0,0.0,0,0.00,CLR,SCT,0.00,WeatherDisplay:10.37,2013-05-27 12:22:00,
2013-05-27 08:27:00,56.9,0.0,30.30,South,172,0.0,0.0,0,0.00,CLR,SCT,0.00,WeatherDisplay:10.37,2013-05-27 12:27:00,
2013-05-27 08:32:00,57.2,0.0,30.30,ESE,112,1.1,0.0,0,0.00,CLR,SCT,0.00,WeatherDisplay:10.37,2013-05-27 12:32:00,
2013-05-27 08:37:00,57.3,0.0,30.30,South,184,3.1,3.1,0,0.00,CLR,SCT,0.00,WeatherDisplay:10.37,2013-05-27 12:37:00,
2013-05-27 08:42:00,57.4,0.0,30.29,WNW,285,2.3,2.3,0,0.00,CLR,SCT,0.00,WeatherDisplay:10.37,2013-05-27 12:42:00,
2013-05-27 08:47:00,57.5,0.0,30.30,West,260,0.8,0.8,0,0.00,CLR,SCT,0.00,WeatherDisplay:10.37,2013-05-27 12:47:00,
2013-05-27 08:52:00,57.9,0.0,30.30,NE,51,3.5,3.5,0,0.00,CLR,SCT,0.00,WeatherDisplay:10.37,2013-05-27 12:52:00,
2013-05-27 08:57:00,58.3,0.0,30.30,NE,38,0.0,0.0,0,0.00,CLR,SCT,0.00,WeatherDisplay:10.37,2013-05-27 12:57:00,
2013-05-27 09:02:00,58.7,0.0,30.30,ENE,58,1.1,1.1,0,0.00,FEW,SCT,0.00,WeatherDisplay:10.37,2013-05-27 13:02:00,
2013-05-27 09:07:00,59.0,0.0,30.30,ENE,58,2.3,2.3,0,0.00,FEW,SCT,0.00,WeatherDisplay:10.37,2013-05-27 13:07:00,
2013-05-27 09:12:00,59.5,0.0,30.30,ENE,69,3.5,3.5,0,0.00,FEW,SCT,0.00,WeatherDisplay:10.37,2013-05-27 13:12:00,
2013-05-27 09:17:00,59.8,0.0,30.30,East,82,2.3,2.3,0,0.00,FEW,SCT,0.00,WeatherDisplay:10.37,2013-05-27 13:17:00,
2013-05-27 09:22:00,60.0,0.0,30.30,North,350,2.3,2.3,0,0.00,FEW,SCT,0.00,WeatherDisplay:10.37,2013-05-27 13:22:00,
2013-05-27 09:27:00,60.3,0.0,30.30,NE,45,2.3,2.3,0,0.00,FEW,SCT,0.00,WeatherDisplay:10.37,2013-05-27 13:27:00,
2013-05-27 09:32:00,60.8,0.0,30.30,NE,45,0.0,0.0,0,0.00,FEW,SCT,0.00,WeatherDisplay:10.37,2013-05-27 13:32:00,
2013-05-27 09:37:00,61.0,0.0,30.30,SSE,150,3.5,3.5,0,0.00,FEW,SCT,0.00,WeatherDisplay:10.37,2013-05-27 13:37:00,
2013-05-27 09:42:00,61.6,0.0,30.30,ENE,68,1.1,1.1,0,0.00,FEW,SCT,0.00,WeatherDisplay:10.37,2013-05-27 13:42:00,
2013-05-27 09:47:00,61.8,0.0,30.30,SSE,151,2.3,2.3,0,0.00,FEW,SCT,0.00,WeatherDisplay:10.37,2013-05-27 13:47:00,
2013-05-27 09:52:00,61.8,0.0,30.30,SSE,164,5.5,5.5,0,0.00,FEW,SCT,0.00,WeatherDisplay:10.37,2013-05-27 13:52:00,
2013-05-27 09:57:00,61.7,0.0,30.30,ESE,109,2.3,2.3,0,0.00,FEW,SCT,0.00,WeatherDisplay:10.37,2013-05-27 13:57:00,
2013-05-27 10:02:00,61.9,0.0,30.30,SSE,158,3.5,3.5,0,0.00,FEW,SCT,0.00,WeatherDisplay:10.37,2013-05-27 14:02:00,
2013-05-27 10:07:00,62.0,0.0,30.30,SSE,168,0.0,0.0,0,0.00,FEW,SCT,0.00,WeatherDisplay:10.37,2013-05-27 14:07:00,
2013-05-27 10:12:00,62.0,0.0,30.29,South,175,4.6,4.6,0,0.00,FEW,SCT,0.00,WeatherDisplay:10.37,2013-05-27 14:12:00,
2013-05-27 10:17:00,62.1,0.0,30.29,SSE,158,5.8,5.8,0,0.00,FEW,SCT,0.00,WeatherDisplay:10.37,2013-05-27 14:17:00,
2013-05-27 10:22:00,62.2,0.0,30.29,SSW,196,5.2,5.2,0,0.00,FEW,SCT,0.00,WeatherDisplay:10.37,2013-05-27 14:22:00,
2013-05-27 10:27:00,62.2,0.0,30.29,South,182,5.8,5.8,0,0.00,FEW,SCT,0.00,WeatherDisplay:10.37,2013-05-27 14:27:00,
2013-05-27 10:32:00,62.2,0.0,30.29,South,191,5.8,5.8,0,0.00,FEW,SCT,0.00,WeatherDisplay:10.37,2013-05-27 14:32:00,
2013-05-27 10:37:00,62.2,0.0,30.29,SSE,167,8.1,8.1,0,0.00,FEW,SCT,0.00,WeatherDisplay:10.37,2013-05-27 14:37:00,
2013-05-27 10:42:00,62.0,0.0,30.29,South,184,5.8,5.8,0,0.00,FEW,SCT,0.00,WeatherDisplay:10.37,2013-05-27 14:42:00,
2013-05-27 10:47:00,62.0,0.0,30.30,WSW,246,3.5,3.5,0,0.00,FEW,SCT,0.00,WeatherDisplay:10.37,2013-05-27 14:47:00,
2013-05-27 10:52:00,62.1,0.0,30.29,South,175,6.9,6.9,0,0.00,FEW,SCT,0.00,WeatherDisplay:10.37,2013-05-27 14:52:00,
2013-05-27 10:57:00,62.2,0.0,30.29,SE,145,6.9,6.9,0,0.00,FEW,SCT,0.00,WeatherDisplay:10.37,2013-05-27 14:57:00,
2013-05-27 11:02:00,62.1,0.0,30.29,SSW,202,6.9,6.9,0,0.00,BKN,SCT,0.00,WeatherDisplay:10.37,2013-05-27 15:02:00,
2013-05-27 11:07:00,61.9,0.0,30.28,SSE,160,4.6,4.6,0,0.00,BKN,SCT,0.00,WeatherDisplay:10.37,2013-05-27 15:07:00,
2013-05-27 11:12:00,62.1,0.0,30.29,SSE,148,4.6,4.6,0,0.00,BKN,SCT,0.00,WeatherDisplay:10.37,2013-05-27 15:12:00,
2013-05-27 11:17:00,62.5,0.0,30.29,South,175,0.0,0.0,0,0.00,BKN,SCT,0.00,WeatherDisplay:10.37,2013-05-27 15:17:00,
2013-05-27 11:22:00,62.9,0.0,30.29,WSW,258,2.2,2.2,0,0.00,BKN,SCT,0.00,WeatherDisplay:10.37,2013-05-27 15:22:00,
2013-05-27 11:27:00,63.3,0.0,30.28,South,169,6.9,6.9,0,0.00,BKN,SCT,0.00,WeatherDisplay:10.37,2013-05-27 15:27:00,
2013-05-27 11:32:00,63.3,0.0,30.29,South,182,2.4,2.4,0,0.00,BKN,SCT,0.00,WeatherDisplay:10.37,2013-05-27 15:32:00,
2013-05-27 11:37:00,63.6,0.0,30.29,SSE,165,4.6,4.6,0,0.00,BKN,SCT,0.00,WeatherDisplay:10.37,2013-05-27 15:37:00,
2013-05-27 11:42:00,64.0,0.0,30.29,ESE,102,1.1,0.0,0,0.00,BKN,SCT,0.00,WeatherDisplay:10.37,2013-05-27 15:42:00,
2013-05-27 11:47:00,64.6,0.0,30.29,SSE,154,6.9,6.9,0,0.00,BKN,SCT,0.00,WeatherDisplay:10.37,2013-05-27 15:47:00,
2013-05-27 11:52:00,65.1,0.0,30.28,East,86,5.8,5.8,0,0.00,BKN,SCT,0.00,WeatherDisplay:10.37,2013-05-27 15:52:00,
2013-05-27 11:57:00,65.2,0.0,30.28,SSW,213,4.2,4.2,0,0.00,BKN,SCT,0.00,WeatherDisplay:10.37,2013-05-27 15:57:00,
2013-05-27 12:02:00,65.5,0.0,30.28,WSW,240,0.7,0.7,0,0.00,BKN,SCT,0.00,WeatherDisplay:10.37,2013-05-27 16:02:00,
2013-05-27 12:07:00,65.8,0.0,30.28,ENE,58,3.5,3.5,0,0.00,BKN,SCT,0.00,WeatherDisplay:10.37,2013-05-27 16:07:00,
2013-05-27 12:12:00,65.7,0.0,30.28,SSW,195,2.8,2.8,0,0.00,BKN,SCT,0.00,WeatherDisplay:10.37,2013-05-27 16:12:00,
2013-05-27 12:17:00,65.7,0.0,30.28,South,186,4.6,4.6,0,0.00,BKN,SCT,0.00,WeatherDisplay:10.37,2013-05-27 16:17:00,
2013-05-27 12:22:00,65.6,0.0,30.28,South,171,4.6,4.6,0,0.00,BKN,SCT,0.00,WeatherDisplay:10.37,2013-05-27 16:22:00,
2013-05-27 12:27:00,65.4,0.0,30.28,SSW,198,5.0,5.0,0,0.00,BKN,SCT,0.00,WeatherDisplay:10.37,2013-05-27 16:27:00,
2013-05-27 12:32:00,65.6,0.0,30.28,South,179,3.5,3.5,0,0.00,BKN,SCT,0.00,WeatherDisplay:10.37,2013-05-27 16:32:00,
2013-05-27 12:37:00,66.2,0.0,30.28,ENE,73,2.3,2.3,0,0.00,BKN,SCT,0.00,WeatherDisplay:10.37,2013-05-27 16:37:00,
2013-05-27 12:42:00,66.8,0.0,30.27,South,169,7.6,7.6,0,0.00,BKN,SCT,0.00,WeatherDisplay:10.37,2013-05-27 16:42:00,
2013-05-27 12:47:00,66.7,0.0,30.27,SE,127,6.9,6.9,0,0.00,BKN,SCT,0.00,WeatherDisplay:10.37,2013-05-27 16:47:00,
2013-05-27 12:52:00,66.8,0.0,30.27,SSE,165,6.9,6.9,0,0.00,BKN,SCT,0.00,WeatherDisplay:10.37,2013-05-27 16:52:00,
2013-05-27 12:57:00,66.8,0.0,30.27,SSW,200,5.9,5.9,0,0.00,BKN,SCT,0.00,WeatherDisplay:10.37,2013-05-27 16:57:00,
2013-05-27 13:02:00,67.0,0.0,30.27,SE,128,2.3,2.3,0,0.00,BKN,SCT,0.00,WeatherDisplay:10.37,2013-05-27 17:02:00,
2013-05-27 13:08:00,67.8,0.0,30.26,SSE,160,8.3,8.3,0,0.00,BKN,SCT,0.00,WeatherDisplay:10.37,2013-05-27 17:08:00,
2013-05-27 13:13:00,68.0,0.0,30.26,SSW,206,3.5,3.5,0,0.00,BKN,SCT,0.00,WeatherDisplay:10.37,2013-05-27 17:13:00,
2013-05-27 13:18:00,68.6,0.0,30.26,South,172,5.8,5.8,0,0.00,BKN,SCT,0.00,WeatherDisplay:10.37,2013-05-27 17:18:00,
2013-05-27 13:23:00,69.4,0.0,30.26,East,85,3.5,3.5,0,0.00,BKN,SCT,0.00,WeatherDisplay:10.37,2013-05-27 17:23:00,
2013-05-27 13:28:00,69.6,0.0,30.26,South,178,3.5,3.5,0,0.00,BKN,SCT,0.00,WeatherDisplay:10.37,2013-05-27 17:28:00,
2013-05-27 13:33:00,69.5,0.0,30.26,SSE,165,6.9,6.9,0,0.00,BKN,SCT,0.00,WeatherDisplay:10.37,2013-05-27 17:33:00,
2013-05-27 13:38:00,69.9,0.0,30.25,SSE,162,8.1,8.1,0,0.00,BKN,SCT,0.00,WeatherDisplay:10.37,2013-05-27 17:38:00,
2013-05-27 13:43:00,70.4,0.0,30.25,SE,145,5.6,5.6,0,0.00,BKN,SCT,0.00,WeatherDisplay:10.37,2013-05-27 17:43:00,
2013-05-27 13:48:00,70.9,0.0,30.25,SE,127,4.6,6.5,0,0.00,BKN,SCT,0.00,WeatherDisplay:10.37,2013-05-27 17:48:00,
2013-05-27 13:53:00,71.2,0.0,30.25,SSE,150,10.2,10.2,0,0.00,BKN,SCT,0.00,WeatherDisplay:10.37,2013-05-27 17:53:00,
2013-05-27 13:58:00,71.4,0.0,30.25,South,174,7.9,7.9,0,0.00,BKN,SCT,0.00,WeatherDisplay:10.37,2013-05-27 17:58:00,
2013-05-27 14:03:00,71.6,0.0,30.25,SSE,160,9.6,9.6,0,0.00,FEW,SCT,0.00,WeatherDisplay:10.37,2013-05-27 18:03:00,
2013-05-27 14:08:00,71.8,0.0,30.24,South,184,8.1,8.1,0,0.00,FEW,SCT,0.00,WeatherDisplay:10.37,2013-05-27 18:08:00,
2013-05-27 14:13:00,72.2,0.0,30.24,SSE,160,10.4,10.4,0,0.00,FEW,SCT,0.00,WeatherDisplay:10.37,2013-05-27 18:13:00,
2013-05-27 14:18:00,71.8,0.0,30.24,SE,133,10.4,10.4,0,0.00,FEW,SCT,0.00,WeatherDisplay:10.37,2013-05-27 18:18:00,
2013-05-27 14:23:00,71.9,0.0,30.24,South,175,13.8,13.8,0,0.00,FEW,SCT,0.00,WeatherDisplay:10.37,2013-05-27 18:23:00,
2013-05-27 14:28:00,72.4,0.0,30.24,ESE,109,3.5,3.5,0,0.00,FEW,SCT,0.00,WeatherDisplay:10.37,2013-05-27 18:28:00,
2013-05-27 14:33:00,73.2,0.0,30.23,SE,136,9.2,9.2,0,0.00,FEW,SCT,0.00,WeatherDisplay:10.37,2013-05-27 18:33:00,
2013-05-27 14:38:00,73.2,0.0,30.23,SSE,168,8.1,8.1,0,0.00,FEW,SCT,0.00,WeatherDisplay:10.37,2013-05-27 18:38:00,
2013-05-27 14:43:00,72.6,0.0,30.23,ESE,119,6.9,6.9,0,0.00,FEW,SCT,0.00,WeatherDisplay:10.37,2013-05-27 18:43:00,
2013-05-27 14:48:00,72.5,0.0,30.23,SSE,158,10.4,10.4,0,0.00,FEW,SCT,0.00,WeatherDisplay:10.37,2013-05-27 18:48:00,
2013-05-27 14:53:00,72.5,0.0,30.22,South,172,11.5,11.5,0,0.00,FEW,SCT,0.00,WeatherDisplay:10.37,2013-05-27 18:53:00,
2013-05-27 14:58:00,72.7,0.0,30.22,SE,138,5.8,5.8,0,0.00,FEW,SCT,0.00,WeatherDisplay:10.37,2013-05-27 18:58:00,
2013-05-27 15:03:00,73.3,0.0,30.22,SSE,155,11.5,11.5,0,0.00,FEW,SCT,0.00,WeatherDisplay:10.37,2013-05-27 19:03:00,
2013-05-27 15:08:00,73.4,0.0,30.22,SSE,158,6.9,6.9,0,0.00,FEW,SCT,0.00,WeatherDisplay:10.37,2013-05-27 19:08:00,
2013-05-27 15:13:00,73.4,0.0,30.22,SSE,168,4.6,4.6,0,0.00,FEW,SCT,0.00,WeatherDisplay:10.37,2013-05-27 19:13:00,
2013-05-27 15:18:00,73.6,0.0,30.21,SSW,203,9.2,9.2,0,0.00,FEW,SCT,0.00,WeatherDisplay:10.37,2013-05-27 19:18:00,
2013-05-27 15:23:00,73.7,0.0,30.21,SE,143,8.1,8.1,0,0.00,FEW,SCT,0.00,WeatherDisplay:10.37,2013-05-27 19:23:00,
2013-05-27 15:28:00,73.8,0.0,30.21,SSW,198,10.4,10.4,0,0.00,FEW,SCT,0.00,WeatherDisplay:10.37,2013-05-27 19:28:00,
2013-05-27 15:33:00,73.6,0.0,30.21,SSE,148,9.2,9.2,0,0.00,FEW,SCT,0.00,WeatherDisplay:10.37,2013-05-27 19:33:00,
2013-05-27 15:38:00,73.8,0.0,30.21,South,169,11.5,11.5,0,0.00,FEW,SCT,0.00,WeatherDisplay:10.37,2013-05-27 19:38:00,
2013-05-27 15:43:00,73.7,0.0,30.21,East,100,6.9,6.9,0,0.00,FEW,SCT,0.00,WeatherDisplay:10.37,2013-05-27 19:43:00,
2013-05-27 15:48:00,73.2,0.0,30.20,South,176,8.1,8.1,0,0.00,FEW,SCT,0.00,WeatherDisplay:10.37,2013-05-27 19:48:00,
2013-05-27 15:53:00,72.9,0.0,30.20,SSE,167,5.0,5.0,0,0.00,FEW,SCT,0.00,WeatherDisplay:10.37,2013-05-27 19:53:00,
2013-05-27 15:58:00,73.2,0.0,30.20,South,172,10.4,10.4,0,0.00,FEW,SCT,0.00,WeatherDisplay:10.37,2013-05-27 19:58:00,
2013-05-27 16:03:00,73.3,0.0,30.20,South,188,8.1,8.1,0,0.00,SCT,,0.00,WeatherDisplay:10.37,2013-05-27 20:03:00,
2013-05-27 16:08:00,73.5,0.0,30.20,SW,222,5.8,5.8,0,0.00,SCT,,0.00,WeatherDisplay:10.37,2013-05-27 20:08:00,
2013-05-27 16:13:00,73.6,0.0,30.20,South,182,8.1,8.1,0,0.00,SCT,,0.00,WeatherDisplay:10.37,2013-05-27 20:13:00,
2013-05-27 16:18:00,73.8,0.0,30.20,SSW,205,5.8,5.8,0,0.00,SCT,,0.00,WeatherDisplay:10.37,2013-05-27 20:18:00,
2013-05-27 16:23:00,73.8,0.0,30.19,SSW,210,10.4,10.4,0,0.00,SCT,,0.00,WeatherDisplay:10.37,2013-05-27 20:23:00,
2013-05-27 16:28:00,73.8,0.0,30.19,South,172,10.4,10.4,0,0.00,SCT,,0.00,WeatherDisplay:10.37,2013-05-27 20:28:00,
2013-05-27 16:33:00,73.7,0.0,30.19,South,175,9.2,9.2,0,0.00,SCT,,0.00,WeatherDisplay:10.37,2013-05-27 20:33:00,
2013-05-27 16:38:00,73.8,0.0,30.19,South,171,8.1,8.1,0,0.00,SCT,,0.00,WeatherDisplay:10.37,2013-05-27 20:38:00,
2013-05-27 16:43:00,74.0,0.0,30.19,South,176,6.9,6.9,0,0.00,SCT,,0.00,WeatherDisplay:10.37,2013-05-27 20:43:00,
2013-05-27 16:48:00,74.0,0.0,30.18,SSE,160,5.0,5.0,0,0.00,SCT,,0.00,WeatherDisplay:10.37,2013-05-27 20:48:00,
2013-05-27 16:53:00,74.1,0.0,30.18,SSE,157,9.2,9.2,0,0.00,SCT,,0.00,WeatherDisplay:10.37,2013-05-27 20:53:00,
2013-05-27 16:58:00,74.1,0.0,30.18,South,186,5.8,5.8,0,0.00,SCT,,0.00,WeatherDisplay:10.37,2013-05-27 20:58:00,
2013-05-27 17:03:00,74.2,0.0,30.18,SSE,152,8.1,8.1,0,0.00,SCT,,0.00,WeatherDisplay:10.37,2013-05-27 21:03:00,
2013-05-27 17:08:00,74.1,0.0,30.18,South,175,9.2,9.2,0,0.00,SCT,,0.00,WeatherDisplay:10.37,2013-05-27 21:08:00,
2013-05-27 17:13:00,74.0,0.0,30.18,SSE,154,8.1,8.1,0,0.00,SCT,,0.00,WeatherDisplay:10.37,2013-05-27 21:13:00,
2013-05-27 17:18:00,73.9,0.0,30.18,SSE,151,9.2,9.2,0,0.00,SCT,,0.00,WeatherDisplay:10.37,2013-05-27 21:18:00,
2013-05-27 17:23:00,73.8,0.0,30.18,SSE,160,13.8,13.8,0,0.00,SCT,,0.00,WeatherDisplay:10.37,2013-05-27 21:23:00,
2013-05-27 17:28:00,73.7,0.0,30.18,SSE,162,10.4,10.4,0,0.00,SCT,,0.00,WeatherDisplay:10.37,2013-05-27 21:28:00,
2013-05-27 17:33:00,73.6,0.0,30.18,SE,141,10.4,10.4,0,0.00,SCT,,0.00,WeatherDisplay:10.37,2013-05-27 21:33:00,
2013-05-27 17:38:00,73.6,0.0,30.18,SSE,165,5.8,5.8,0,0.00,SCT,,0.00,WeatherDisplay:10.37,2013-05-27 21:38:00,
2013-05-27 17:43:00,73.0,0.0,30.18,ESE,102,6.9,6.9,0,0.00,SCT,,0.00,WeatherDisplay:10.37,2013-05-27 21:43:00,
2013-05-27 17:48:00,72.5,0.0,30.18,SSE,148,5.8,5.8,0,0.00,SCT,,0.00,WeatherDisplay:10.37,2013-05-27 21:48:00,
2013-05-27 17:53:00,72.0,0.0,30.19,South,178,5.8,5.8,0,0.00,SCT,,0.00,WeatherDisplay:10.37,2013-05-27 21:53:00,
2013-05-27 17:58:00,71.7,0.0,30.18,East,96,4.6,4.6,0,0.00,SCT,,0.00,WeatherDisplay:10.37,2013-05-27 21:58:00,
2013-05-27 18:03:00,71.5,0.0,30.19,South,171,4.6,4.6,0,0.00,SCT,,0.00,WeatherDisplay:10.37,2013-05-27 22:03:00,
2013-05-27 18:08:00,71.3,0.0,30.18,SSE,158,5.8,5.8,0,0.00,SCT,,0.00,WeatherDisplay:10.37,2013-05-27 22:08:00,
2013-05-27 18:13:00,71.2,0.0,30.18,SE,144,4.6,4.6,0,0.00,SCT,,0.00,WeatherDisplay:10.37,2013-05-27 22:13:00,
2013-05-27 18:18:00,71.1,0.0,30.18,South,171,11.5,11.5,0,0.00,SCT,,0.00,WeatherDisplay:10.37,2013-05-27 22:18:00,
2013-05-27 18:23:00,71.0,0.0,30.17,SSE,160,7.5,7.5,0,0.00,SCT,,0.00,WeatherDisplay:10.37,2013-05-27 22:23:00,
2013-05-27 18:28:00,71.0,0.0,30.17,SSE,157,8.1,8.1,0,0.00,SCT,,0.00,WeatherDisplay:10.37,2013-05-27 22:28:00,
2013-05-27 18:33:00,70.8,0.0,30.17,SE,133,9.2,9.2,0,0.00,SCT,,0.00,WeatherDisplay:10.37,2013-05-27 22:33:00,
2013-05-27 18:38:00,70.6,0.0,30.17,ESE,117,5.8,5.8,0,0.00,SCT,,0.00,WeatherDisplay:10.37,2013-05-27 22:38:00,
2013-05-27 18:43:00,70.6,0.0,30.17,South,186,5.8,5.8,0,0.00,SCT,,0.00,WeatherDisplay:10.37,2013-05-27 22:43:00,
2013-05-27 18:48:00,70.5,0.0,30.17,SSE,162,8.1,8.1,0,0.00,SCT,,0.00,WeatherDisplay:10.37,2013-05-27 22:48:00,
2013-05-27 18:53:00,70.6,0.0,30.17,SSE,168,6.9,6.9,0,0.00,SCT,,0.00,WeatherDisplay:10.37,2013-05-27 22:53:00,
2013-05-27 18:58:00,70.6,0.0,30.17,SE,124,5.8,5.8,0,0.00,SCT,,0.00,WeatherDisplay:10.37,2013-05-27 22:58:00,
2013-05-27 19:03:00,70.6,0.0,30.17,South,175,6.9,6.9,0,0.00,SCT,,0.00,WeatherDisplay:10.37,2013-05-27 23:03:00,
2013-05-27 19:08:00,70.6,0.0,30.17,SE,134,6.0,6.0,0,0.00,SCT,,0.00,WeatherDisplay:10.37,2013-05-27 23:08:00,
2013-05-27 19:13:00,70.7,0.0,30.16,South,179,8.1,8.1,0,0.00,SCT,,0.00,WeatherDisplay:10.37,2013-05-27 23:13:00,
2013-05-27 19:18:00,70.6,0.0,30.16,SE,134,6.9,6.9,0,0.00,SCT,,0.00,WeatherDisplay:10.37,2013-05-27 23:18:00,
2013-05-27 19:23:00,70.5,0.0,30.16,South,179,8.1,8.1,0,0.00,SCT,,0.00,WeatherDisplay:10.37,2013-05-27 23:23:00,
2013-05-27 19:28:00,70.4,0.0,30.16,South,181,8.1,8.1,0,0.00,SCT,,0.00,WeatherDisplay:10.37,2013-05-27 23:28:00,
2013-05-27 19:33:00,70.1,0.0,30.16,SSE,157,9.2,9.2,0,0.00,SCT,,0.00,WeatherDisplay:10.37,2013-05-27 23:33:00,
2013-05-27 19:38:00,70.1,0.0,30.16,SSE,152,9.2,9.2,0,0.00,SCT,,0.00,WeatherDisplay:10.37,2013-05-27 23:38:00,
2013-05-27 19:43:00,70.1,0.0,30.16,SSW,203,8.1,8.1,0,0.00,SCT,,0.00,WeatherDisplay:10.37,2013-05-27 23:43:00,
2013-05-27 19:48:00,70.0,0.0,30.16,South,181,6.9,6.9,0,0.00,SCT,,0.00,WeatherDisplay:10.37,2013-05-27 23:48:00,
2013-05-27 19:53:00,69.9,0.0,30.16,SE,136,9.2,9.2,0,0.00,SCT,,0.00,WeatherDisplay:10.37,2013-05-27 23:53:00,
2013-05-27 19:58:00,69.6,0.0,30.16,SE,140,10.4,10.4,0,0.00,SCT,,0.00,WeatherDisplay:10.37,2013-05-27 23:58:00,
2013-05-27 20:03:00,69.0,0.0,30.16,SE,126,9.8,9.8,0,0.00,SCT,,0.00,WeatherDisplay:10.37,2013-05-28 00:03:00,
2013-05-27 20:08:00,68.5,0.0,30.16,South,169,11.5,11.5,0,0.00,SCT,,0.00,WeatherDisplay:10.37,2013-05-28 00:08:00,
2013-05-27 20:13:00,68.0,0.0,30.16,SSW,203,10.4,10.4,0,0.00,SCT,,0.00,WeatherDisplay:10.37,2013-05-28 00:13:00,
2013-05-27 20:18:00,67.6,0.0,30.17,ESE,117,8.1,8.1,0,0.00,SCT,,0.00,WeatherDisplay:10.37,2013-05-28 00:18:00,
2013-05-27 20:23:00,67.2,0.0,30.17,SSE,155,10.4,10.4,0,0.00,SCT,,0.00,WeatherDisplay:10.37,2013-05-28 00:23:00,
2013-05-27 20:28:00,66.9,0.0,30.17,SSE,168,9.6,9.6,0,0.00,SCT,,0.00,WeatherDisplay:10.37,2013-05-28 00:28:00,
2013-05-27 20:33:00,66.9,0.0,30.17,South,179,9.2,9.2,0,0.00,SCT,,0.00,WeatherDisplay:10.37,2013-05-28 00:33:00,
2013-05-27 20:38:00,66.7,0.0,30.17,SE,133,6.9,6.9,0,0.00,SCT,,0.00,WeatherDisplay:10.37,2013-05-28 00:38:00,
2013-05-27 20:43:00,66.5,0.0,30.17,SSW,202,8.1,8.1,0,0.00,SCT,,0.00,WeatherDisplay:10.37,2013-05-28 00:43:00,
2013-05-27 20:48:00,66.4,0.0,30.17,SSE,150,8.1,8.1,0,0.00,SCT,,0.00,WeatherDisplay:10.37,2013-05-28 00:48:00,
2013-05-27 20:53:00,66.2,0.0,30.17,SSE,161,8.1,8.1,0,0.00,SCT,,0.00,WeatherDisplay:10.37,2013-05-28 00:53:00,
2013-05-27 20:58:00,66.1,0.0,30.17,SSE,162,9.2,9.2,0,0.00,SCT,,0.00,WeatherDisplay:10.37,2013-05-28 00:58:00,
2013-05-27 21:03:00,66.0,0.0,30.17,SSE,167,8.1,8.1,0,0.00,BKN,SCT,0.00,WeatherDisplay:10.37,2013-05-28 01:03:00,
2013-05-27 21:08:00,66.1,0.0,30.18,SSE,155,8.1,8.1,0,0.00,BKN,SCT,0.00,WeatherDisplay:10.37,2013-05-28 01:08:00,
2013-05-27 21:13:00,66.1,0.0,30.18,ESE,114,8.1,8.1,0,0.00,BKN,SCT,0.00,WeatherDisplay:10.37,2013-05-28 01:13:00,
2013-05-27 21:18:00,65.9,0.0,30.18,SE,128,6.9,6.9,0,0.00,BKN,SCT,0.00,WeatherDisplay:10.37,2013-05-28 01:18:00,
2013-05-27 21:23:00,65.9,0.0,30.18,SE,143,4.6,4.6,0,0.00,BKN,SCT,0.00,WeatherDisplay:10.37,2013-05-28 01:23:00,
2013-05-27 21:28:00,65.8,0.0,30.18,SE,143,6.9,6.9,0,0.00,BKN,SCT,0.00,WeatherDisplay:10.37,2013-05-28 01:28:00,
2013-05-27 21:33:00,65.7,0.0,30.18,South,172,5.8,5.8,0,0.00,BKN,SCT,0.00,WeatherDisplay:10.37,2013-05-28 01:33:00,
2013-05-27 21:38:00,65.6,0.0,30.18,SSE,162,8.1,8.1,0,0.00,BKN,SCT,0.00,WeatherDisplay:10.37,2013-05-28 01:38:00,
2013-05-27 21:43:00,65.4,0.0,30.18,SSE,152,9.2,9.2,0,0.00,BKN,SCT,0.00,WeatherDisplay:10.37,2013-05-28 01:43:00,
2013-05-27 21:48:00,65.3,0.0,30.18,SE,138,4.0,4.7,0,0.00,BKN,SCT,0.00,WeatherDisplay:10.37,2013-05-28 01:48:00,
2013-05-27 21:53:00,65.1,0.0,30.19,ESE,121,8.1,8.1,0,0.00,BKN,SCT,0.00,WeatherDisplay:10.37,2013-05-28 01:53:00,
2013-05-27 21:58:00,65.1,0.0,30.19,SSE,160,4.6,4.6,0,0.00,BKN,SCT,0.00,WeatherDisplay:10.37,2013-05-28 01:58:00,
2013-05-27 22:03:00,64.8,0.0,30.19,SW,215,5.8,5.8,0,0.00,FEW,SCT,0.00,WeatherDisplay:10.37,2013-05-28 02:03:00,
2013-05-27 22:08:00,64.8,0.0,30.20,South,174,5.8,5.8,0,0.00,FEW,SCT,0.00,WeatherDisplay:10.37,2013-05-28 02:08:00,
2013-05-27 22:13:00,64.7,0.0,30.20,South,176,5.8,5.8,0,0.00,FEW,SCT,0.00,WeatherDisplay:10.37,2013-05-28 02:13:00,
2013-05-27 22:18:00,64.6,0.0,30.20,SSE,147,6.9,6.9,0,0.00,FEW,SCT,0.00,WeatherDisplay:10.37,2013-05-28 02:18:00,
2013-05-27 22:23:00,64.6,0.0,30.20,South,172,6.9,6.9,0,0.00,FEW,SCT,0.00,WeatherDisplay:10.37,2013-05-28 02:23:00,
2013-05-27 22:28:00,64.5,0.0,30.20,SE,141,5.8,5.8,0,0.00,FEW,SCT,0.00,WeatherDisplay:10.37,2013-05-28 02:28:00,
2013-05-27 22:33:00,64.5,0.0,30.21,SSE,147,8.1,8.1,0,0.00,FEW,SCT,0.00,WeatherDisplay:10.37,2013-05-28 02:33:00,
2013-05-27 22:38:00,64.5,0.0,30.21,South,175,6.9,6.9,0,0.00,FEW,SCT,0.00,WeatherDisplay:10.37,2013-05-28 02:38:00,
2013-05-27 22:43:00,64.4,0.0,30.21,South,178,9.2,9.2,0,0.00,FEW,SCT,0.00,WeatherDisplay:10.37,2013-05-28 02:43:00,
2013-05-27 22:48:00,64.3,0.0,30.21,South,186,5.8,5.8,0,0.00,FEW,SCT,0.00,WeatherDisplay:10.37,2013-05-28 02:48:00,
2013-05-27 22:53:00,64.3,0.0,30.20,SSE,160,5.8,5.8,0,0.00,FEW,SCT,0.00,WeatherDisplay:10.37,2013-05-28 02:53:00,
2013-05-27 22:58:00,64.3,0.0,30.20,SSE,157,9.2,9.2,0,0.00,FEW,SCT,0.00,WeatherDisplay:10.37,2013-05-28 02:58:00,
2013-05-27 23:03:00,64.3,0.0,30.20,South,175,6.9,6.9,0,0.00,FEW,SCT,0.00,WeatherDisplay:10.37,2013-05-28 03:03:00,
2013-05-27 23:08:00,64.3,0.0,30.20,SSE,155,4.6,4.6,0,0.00,FEW,SCT,0.00,WeatherDisplay:10.37,2013-05-28 03:08:00,
2013-05-27 23:13:00,64.3,0.0,30.20,South,179,4.6,4.6,0,0.00,FEW,SCT,0.00,WeatherDisplay:10.37,2013-05-28 03:13:00,
2013-05-27 23:18:00,64.3,0.0,30.20,South,178,6.9,6.9,0,0.00,FEW,SCT,0.00,WeatherDisplay:10.37,2013-05-28 03:18:00,
2013-05-27 23:23:00,64.2,0.0,30.20,SSE,150,8.1,8.1,0,0.00,FEW,SCT,0.00,WeatherDisplay:10.37,2013-05-28 03:23:00,
2013-05-27 23:28:00,64.2,0.0,30.20,SSE,148,6.9,6.9,0,0.00,FEW,SCT,0.00,WeatherDisplay:10.37,2013-05-28 03:28:00,
2013-05-27 23:33:00,63.9,0.0,30.20,SSW,203,6.9,6.9,0,0.00,FEW,SCT,0.00,WeatherDisplay:10.37,2013-05-28 03:33:00,
2013-05-27 23:38:00,63.9,0.0,30.20,SE,128,4.6,4.6,0,0.00,FEW,SCT,0.00,WeatherDisplay:10.37,2013-05-28 03:38:00,
2013-05-27 23:43:00,63.7,0.0,30.20,South,172,4.4,4.4,0,0.00,FEW,SCT,0.00,WeatherDisplay:10.37,2013-05-28 03:43:00,
2013-05-27 23:48:00,63.7,0.0,30.20,SSE,160,4.8,4.8,0,0.00,FEW,SCT,0.00,WeatherDisplay:10.37,2013-05-28 03:48:00,
2013-05-27 23:53:00,63.5,0.0,30.20,South,169,7.0,7.0,0,0.00,FEW,SCT,0.00,WeatherDisplay:10.37,2013-05-28 03:53:00,
2013-05-27 23:59:00,63.6,0.0,30.20,SSE,160,5.8,5.8,0,0.00,FEW,SCT,0.00,WeatherDisplay:10.37,2013-05-28 03:59:00,